Location: ???????
(55.5931°N, 39.3286°E)
Time: 12:51:55
(UTC+00:00)

COSMOS 2428 - Pass Details

Date: 14 April 2024
Orbit: 845 x 855 km, 70.9° (Epoch: 26 May)

Event Time Altitude Azimuth Distance (km) Brightness Sun altitude
Exits shadow 01:22:56 10° 239° (WSW) 2,481 4.4 -8.2°
Reaches altitude 10° 01:22:57 10° 239° (WSW) 2,478 4.4 -8.2°
Maximum altitude 01:28:29 50° 314° (NW) 1,077 3.2 -7.5°
Drops below altitude 10° 01:34:01 10° 30° (NNE) 2,484 6.2 -6.8°
Sets 01:36:34 0° 36° (NE) 3,421 7.2 -6.5°
